Location: ?????
(37.7324°N, 23.9257°E)
Time: 22:07:51
(UTC+00:00)

Gbstr 26 Del rocket - Pass Details

Date: 29 November 2020
Orbit: 493 x 1263 km, 51.8° (Epoch: 19 January)

Event Time Altitude Azimuth Distance (km) Brightness Sun altitude
Exits shadow 04:43:32 - 308° (NW) 1,828 4.9 -7.2°
Reaches altitude 10° 04:43:51 10° 308° (NW) 1,701 4.7 -7.2°
Maximum altitude 04:47:36 79° 221° (SW) 538 2.7 -6.5°
Drops below altitude 10° 04:51:47 10° 135° (SE) 1,885 6.9 -5.7°
Sets 04:54:13 0° 134° (SE) 2,882 8.0 -5.3°
